TimeEDT,TemperatureF,Dew PointF,Humidity,Sea Level PressureIn,VisibilityMPH,Wind Direction,Wind SpeedMPH,Gust SpeedMPH,PrecipitationIn,Events,Conditions,WindDirDegrees,DateUTC
12:53 AM,53.1,41.0,64,29.88,10.0,SW,15.0,-,N/A,,Partly Cloudy,230,2013-10-21 04:53:00
1:53 AM,53.1,41.0,64,29.88,10.0,SW,13.8,21.9,N/A,,Overcast,230,2013-10-21 05:53:00
2:53 AM,52.0,41.0,66,29.88,10.0,SW,12.7,-,N/A,,Clear,230,2013-10-21 06:53:00
3:53 AM,52.0,41.0,66,29.88,10.0,SW,11.5,-,N/A,,Mostly Cloudy,230,2013-10-21 07:53:00
4:53 AM,50.0,42.1,74,29.88,10.0,SW,11.5,-,N/A,,Clear,220,2013-10-21 08:53:00
5:53 AM,48.9,41.0,74,29.87,10.0,SW,15.0,-,N/A,,Clear,230,2013-10-21 09:53:00
6:53 AM,48.0,41.0,77,29.88,10.0,SW,10.4,-,N/A,,Clear,230,2013-10-21 10:53:00
7:53 AM,48.0,41.0,77,29.89,10.0,SW,10.4,-,N/A,,Scattered Clouds,230,2013-10-21 11:53:00
8:53 AM,48.9,42.1,77,29.91,10.0,SW,8.1,-,N/A,,Partly Cloudy,230,2013-10-21 12:53:00
9:53 AM,51.1,42.1,71,29.90,10.0,SW,10.4,-,N/A,,Partly Cloudy,230,2013-10-21 13:53:00
10:53 AM,52.0,43.0,71,29.90,10.0,WSW,8.1,16.1,N/A,,Overcast,240,2013-10-21 14:53:00
11:53 AM,52.0,45.0,77,29.89,10.0,SW,10.4,-,0.00,Rain,Light Rain,230,2013-10-21 15:53:00
12:53 PM,53.1,45.0,74,29.88,10.0,SW,11.5,-,0.00,,Overcast,230,2013-10-21 16:53:00
1:53 PM,53.1,46.0,77,29.87,10.0,West,11.5,-,0.00,Rain,Light Rain,260,2013-10-21 17:53:00
2:29 PM,51.8,46.4,82,29.85,10.0,West,10.4,21.9,0.00,Rain,Light Rain,260,2013-10-21 18:29:00
2:53 PM,52.0,46.0,80,29.86,10.0,West,9.2,-,0.00,Rain,Light Rain,260,2013-10-21 18:53:00
3:38 PM,51.8,46.4,82,29.84,9.0,WSW,10.4,16.1,0.00,Rain,Light Rain,240,2013-10-21 19:38:00
3:53 PM,51.1,46.9,86,29.86,10.0,West,12.7,-,0.00,Rain,Light Rain,270,2013-10-21 19:53:00
4:01 PM,51.8,46.4,82,29.84,10.0,WSW,9.2,17.3,0.00,Rain,Light Rain,250,2013-10-21 20:01:00
4:09 PM,51.8,46.4,82,29.84,10.0,WSW,12.7,-,0.00,Rain,Light Rain,240,2013-10-21 20:09:00
4:53 PM,50.0,46.9,89,29.85,10.0,SW,11.5,-,0.00,Rain,Light Rain,230,2013-10-21 20:53:00
5:37 PM,50.0,46.4,87,29.84,10.0,West,9.2,17.3,0.00,Rain,Light Rain,260,2013-10-21 21:37:00
5:51 PM,50.0,46.4,87,29.85,10.0,West,9.2,-,0.00,,Overcast,260,2013-10-21 21:51:00
5:53 PM,50.0,46.9,89,29.86,10.0,West,9.2,-,0.00,,Overcast,260,2013-10-21 21:53:00
6:20 PM,50.0,46.4,87,29.85,10.0,West,4.6,-,N/A,,Overcast,260,2013-10-21 22:20:00
6:28 PM,50.0,46.4,87,29.85,10.0,WSW,3.5,-,N/A,,Mostly Cloudy,250,2013-10-21 22:28:00
6:53 PM,48.9,46.0,90,29.87,10.0,West,6.9,-,N/A,,Overcast,260,2013-10-21 22:53:00
7:34 PM,48.2,41.0,76,29.87,10.0,NW,11.5,-,N/A,,Overcast,320,2013-10-21 23:34:00
7:42 PM,46.4,39.2,76,29.87,10.0,NNW,11.5,20.7,N/A,,Mostly Cloudy,330,2013-10-21 23:42:00
7:53 PM,46.9,39.0,74,29.89,10.0,NW,10.4,20.7,N/A,,Mostly Cloudy,310,2013-10-21 23:53:00
8:53 PM,44.1,36.0,73,29.91,10.0,WNW,11.5,17.3,N/A,,Overcast,300,2013-10-22 00:53:00
9:53 PM,41.0,35.1,79,29.91,10.0,West,3.5,-,N/A,,Clear,260,2013-10-22 01:53:00
10:53 PM,39.0,33.1,79,29.91,10.0,West,5.8,-,N/A,,Clear,260,2013-10-22 02:53:00
11:53 PM,37.9,32.0,79,29.90,10.0,West,5.8,-,N/A,,Scattered Clouds,260,2013-10-22 03:53:00